Location: *
(58.7167°N, 26.1833°E)
Time: 22:55:34
(UTC+00:00)

Cosmos 676 Rocket - Pass Details

Date: 25 August 2019
Orbit: 754 x 784 km, 74.0° (Epoch: 17 September)

Event Time Altitude Azimuth Distance (km) Brightness Sun altitude
Rises 21:46:32 0° 328° (NNW) 3,290 8.4 -20.4°
Reaches altitude 10° 21:48:59 10° 332° (NNW) 2,357 7.5 -20.4°
Maximum altitude 21:54:17 59° 52° (NE) 904 4.4 -20.5°
Enters shadow 21:57:07 27° 123° (ESE) 1,470 5.1 -20.6°
